Temp
14 14 14 14 14 14 14 14 14 14 14 13 13 12 12 12 11 11 11 11 11 11 10 10 10 10 10 10 10 10 10 10 10 10 10 10 10 10 9 9 9 9 9 8 8 8 7 7 7 6 6 6 5 5 5 5 4 4 4 4 4 3 3 3 3 3 3 3 2
14 14 14 14 14 14 14 14 14 14 13 13 13 12 12 11 11 11 11 11 10 10 10 10 10 10 10 10 10 10 10 10 10 10 10 10 9 9 9 9 9 8 8 8 7 7 7 6 6 6 6 5 5 5 5 4 4 4 4 3 3 3 3 3 3 3 2 2 2
14 14 14 14 14 14 14 14 14 13 13 13 12 12 12 11 11 11 10 10 10 10 10 10 10 10 9 9 10 10 10 10 10 10 9 9 9 9 9 8 8 8 8 7 7 7 6 6 6 5 5 5 5 4 4 4 4 3 3 3 3 3 3 3 2 2 2 2 2
14 14 14 14 14 14 14 14 14 13 13 13 12 12 11 11 11 11 10 10 10 10 10 10 10 9 9 9 9 9 10 10 9 9 9 9 9 9 8 8 8 7 7 7 6 6 6 5 5 5 5 4 4 4 4 4 3 3 3 3 3 3 2 2 2 2 2 2 2
14 14 14 14 14 14 14 14 13 13 13 12 12 12 11 11 11 10 10 10 10 10 10 9 9 9 9 9 9 9 9 9 9 9 9 9 8 8 8 8 7 7 7 6 6 6 5 5 5 4 4 4 4 4 3 3 3 3 3 3 2 2 2 2 2 2 2 2 2
14 14 14 13 13 13 13 13 13 13 12 12 12 11 11 11 11 10 10 10 10 10 9 9 9 9 9 9 9 9 9 9 9 9 9 8 8 8 7 7 7 7 6 6 5 5 5 4 4 4 4 4 3 3 3 3 3 3 2 2 2 2 2 2 2 2 2 2 1
14 13 13 13 13 13 13 13 13 13 12 12 11 11 11 11 10 10 10 10 10 9 9 9 9 9 9 9 9 9 9 9 9 8 8 8 8 7 7 7 6 6 6 5 5 5 4 4 4 4 3 3 3 3 3 3 2 2 2 2 2 2 2 2 2 2 1 1 1
13 13 13 13 13 13 13 13 13 12 12 12 11 11 11 10 10 10 10 10 9 9 9 9 9 9 9 9 9 9 9 9 8 8 8 8 7 7 7 6 6 6 5 5 4 4 4 4 3 3 3 3 3 3 3 2 2 2 2 2 2 2 2 2 2 1 1 1 1
13 13 13 13 13 13 13 13 12 12 12 11 11 11 10 10 10 10 10 9 9 9 9 9 9 9 9 9 9 9 9 8 8 8 8 7 7 7 6 6 5 5 5 4 4 4 4 3 3 3 3 3 3 3 2 2 2 2 2 2 2 2 2 2 1 1 1 1 1
13 13 13 13 13 13 12 12 12 12 11 11 11 10 10 10 10 10 9 9 9 9 9 9 9 9 9 9 9 8 8 8 8 7 7 7 6 6 6 5 5 5 4 4 4 3 3 3 3 3 3 3 2 2 2 2 2 2 2 2 2 2 2 1 1 1 1 1 1
13 13 13 13 12 12 12 12 12 11 11 11 11 10 10 10 10 10 9 9 9 9 9 9 9 9 9 9 8 8 8 8 7 7 7 6 6 5 5 5 4 4 4 4 4 3 3 3 3 3 3 2 2 2 2 2 2 2 2 2 1 1 1 1 1 1 1 1 1
13 13 12 12 12 12 12 12 12 11 11 11 10 10 10 10 10 10 10 10 10 9 9 9 9 9 9 8 8 8 8 7 7 6 6 6 5 5 5 4 4 4 4 4 3 3 3 3 3 2 2 2 2 2 2 2 2 2 1 1 1 1 1 1 1 1 1 1 1
13 12 12 12 12 12 12 12 11 11 11 10 10 10 10 10 10 10 10 10 10 9 9 9 9 9 8 8 8 7 7 7 6 6 6 5 5 5 5 4 4 4 4 3 3 3 3 3 2 2 2 2 2 2 2 2 1 1 1 1 1 1 1 1 1 1 1 1 1
12 12 12 12 12 12 11 11 11 11 10 10 10 10 10 10 10 10 10 10 9 9 9 9 9 8 8 8 7 7 7 6 6 6 5 5 5 5 4 4 4 4 4 3 3 3 3 2 2 2 2 2 2 2 2 2 1 1 1 1 1 1 1 1 1 1 1 1 1
12 12 12 12 12 11 11 11 11 10 10 10 10 10 10 10 10 10 10 9 9 9 9 9 8 8 8 7 7 7 6 6 6 5 5 5 5 4 4 4 4 4 3 3 3 3 2 2 2 2 2 2 2 2 2 1 1 1 1 1 1 1 1 1 1 1 1 1 1
12 12 12 11 11 11 11 11 10 10 10 10 10 10 10 10 10 10 9 9 9 9 9 8 8 8 7 7 7 6 6 6 5 5 5 5 5 4 4 4 4 4 3 3 3 3 2 2 2 2 2 2 2 1 1 1 1 1 1 1 1 1 1 1 1 1 1 1 1
12 12 11 11 11 11 11 11 10 10 10 10 10 10 10 10 9 9 9 9 9 9 8 8 8 7 7 7 6 6 6 5 5 5 5 5 4 4 4 4 4 3 3 3 3 3 2 2 2 2 2 2 1 1 1 1 1 1 1 1 1 1 1 1 1 1 1 1 1
11 11 11 11 11 11 10 10 10 10 10 10 10 10 10 9 9 9 9 9 9 8 8 8 7 7 7 6 6 6 5 5 5 5 5 4 4 4 4 4 3 3 3 3 2 2 2 2 2 2 2 1 1 1 1 1 1 1 1 1 1 1 1 1 1 1 1 1 1
11 11 11 11 11 10 10 10 10 10 10 10 10 10 9 9 9 9 9 9 8 8 8 7 7 7 6 6 6 5 5 5 5 5 4 4 4 4 4 3 3 3 3 3 2 2 2 2 2 2 1 1 1 1 1 1 1 1 1 1 1 1 1 1 1 1 1 1 1
11 11 11 10 10 10 10 10 10 10 10 10 10 9 9 9 9 9 9 8 8 8 7 7 7 6 6 6 5 5 5 5 5 4 4 4 4 4 3 3 3 3 3 2 2 2 2 2 2 1 1 1 1 1 1 1 1 1 1 1 1 1 1 1 1 1 1 1 1
11 11 10 10 10 10 10 10 10 10 10 10 9 9 9 9 9 9 8 8 8 7 7 7 6 6 6 5 5 5 5 5 4 4 4 4 4 3 3 3 3 3 3 2 2 2 2 2 1 1 1 1 1 1 1 1 1 1 1 1 1 1 1 1 1 1 1 1 1
11 10 10 10 10 10 10 10 10 10 10 9 9 9 9 9 9 8 8 8 7 7 7 6 6 6 5 5 5 5 5 4 4 4 4 4 4 3 3 3 3 3 2 2 2 2 2 1 1 1 1 1 1 1 1 1 1 1 1 1 1 1 1 1 1 1 1 1 1
10 10 10 10 10 10 10 10 10 9 9 9 9 9 9 9 8 8 8 7 7 7 6 6 6 5 5 5 5 5 4 4 4 4 4 4 3 3 3 3 3 2 2 2 2 2 1 1 1 1 1 1 1 1 1 1 1 1 1 1 1 1 1 1 1 1 0 0 0
10 10 10 10 10 9 9 9 9 9 9 9 9 9 9 8 8 8 7 7 7 6 6 6 6 5 5 5 5 4 4 4 4 4 4 3 3 3 3 3 2 2 2 2 2 1 1 1 1 1 1 1 1 1 1 1 1 1 1 1 1 1 1 0 0 0 0 0 0
10 10 10 10 9 9 9 9 9 9 9 9 9 9 8 8 8 7 7 7 6 6 6 6 5 5 5 5 4 4 4 4 4 4 3 3 3 3 3 3 2 2 2 2 1 1 1 0 0 1 1 1 1 1 1 1 1 1 1 1 1 0 0 0 0 0 0 0 -0
10 10 10 9 9 9 9 9 9 9 9 9 9 8 8 8 7 7 7 7 6 6 6 5 5 5 5 4 4 4 4 4 4 3 3 3 3 3 3 2 2 2 2 2 1 1 1 0 1 1 1 1 1 1 1 1 1 1 1 1 0 0 0 0 -0 -0 -0 -0 -0
10 10 9 9 9 9 9 9 9 9 9 9 8 8 8 7 7 7 7 6 6 6 5 5 5 5 4 4 4 4 4 4 3 3 3 3 3 2 2 2 2 2 2 1 1 1 0 0 1 1 1 1 1 1 1 1 1 1 0 0 0 0 -0 -0 -0 -0 -0 -0 -1
10 9 9 9 9 9 9 9 9 9 9 8 8 8 8 7 7 7 6 6 6 5 5 5 5 4 4 4 4 4 4 3 3 3 3 3 2 2 2 2 2 2 2 1 1 0 0 0 0 1 1 1 1 1 1 1 1 0 0 0 0 -0 -0 -0 -1 -1 -1 -1 -1
9 9 9 9 9 9 9 9 9 8 8 8 8 8 7 7 7 6 6 6 5 5 5 5 4 4 4 4 4 4 3 3 3 3 3 2 2 2 2 2 2 2 1 1 1 0 0 0 0 1 1 1 1 1 1 1 0 0 0 0 -0 -0 -0 -1 -1 -1 -1 -1 -1
9 9 9 9 9 9 9 8 8 8 8 8 7 7 7 7 6 6 6 6 5 5 5 4 4 4 4 4 4 3 3 3 3 3 2 2 2 2 2 2 2 1 1 1 1 0 0 0 0 1 1 1 1 1 1 0 0 0 0 -0 -0 -0 -1 -1 -1 -1 -1 -1 -1
9 9 9 9 9 9 8 8 8 8 8 7 7 7 7 6 6 6 6 5 5 5 4 4 4 4 4 3 3 3 3 3 3 2 2 2 2 2 2 2 1 1 1 1 1 0 0 0 0 0 1 1 1 1 0 0 0 0 -0 -0 -0 -1 -1 -1 -1 -1 -1 -1 -1
9 9 9 9 8 8 8 8 8 8 7 7 7 7 6 6 6 6 5 5 5 5 4 4 4 4 3 3 3 3 3 3 3 2 2 2 2 1 1 1 1 1 1 1 0 0 -0 0 0 0 0 1 1 0 0 0 -0 -0 -0 -0 -1 -1 -1 -1 -1 -1 -1 -1 -1
9 9 8 8 8 8 8 8 7 7 7 7 7 6 6 6 6 5 5 5 5 4 4 4 3 3 3 3 3 3 3 2 2 2 2 2 1 1 1 1 1 1 1 1 0 0 -0 -0 0 0 0 0 0 0 0 -0 -0 -0 -1 -1 -1 -1 -1 -1 -1 -1 -1 -1 -1
9 8 8 8 8 8 8 7 7 7 7 6 6 6 6 6 5 5 5 5 4 4 4 3 3 3 3 3 3 3 2 2 2 2 2 2 1 1 1 1 1 1 1 1 0 0 -0 -0 -0 -0 0 0 0 -0 -0 -0 -0 -1 -1 -1 -1 -1 -1 -1 -1 -1 -1 -1 -2
8 8 8 8 8 7 7 7 7 7 6 6 6 6 5 5 5 5 5 4 4 4 3 3 3 3 3 3 2 2 2 2 2 2 2 1 1 1 1 1 1 1 1 1 0 -0 -0 -0 -0 -0 -0 -0 -0 -0 -0 -1 -1 -1 -1 -1 -1 -1 -1 -1 -1 -1 -1 -2 -2
8 8 8 7 7 7 7 7 7 6 6 6 6 5 5 5 5 5 4 4 4 3 3 3 3 3 3 2 2 2 2 2 2 2 1 1 1 1 1 1 1 1 1 1 0 -0 -0 -0 -0 -0 -0 -0 -0 -0 -1 -1 -1 -1 -1 -1 -1 -1 -1 -1 -1 -1 -1 -1 -2
8 7 7 7 7 7 7 6 6 6 6 6 5 5 5 5 4 4 4 4 3 3 3 3 3 3 2 2 2 2 2 2 1 1 1 1 1 1 1 1 1 1 1 1 0 -0 -0 -0 -1 -0 -0 -1 -1 -1 -1 -1 -1 -1 -1 -1 -1 -1 -1 -1 -1 -1 -1 -1 -2
7 7 7 7 7 7 6 6 6 6 5 5 5 5 5 4 4 4 4 3 3 3 3 3 3 2 2 2 2 2 2 2 1 1 1 1 1 1 1 1 1 1 1 1 0 -0 -0 -1 -1 -1 -1 -1 -1 -1 -1 -1 -1 -1 -1 -1 -1 -1 -1 -1 -1 -1 -1 -2 -2
7 7 7 7 6 6 6 6 6 5 5 5 5 4 4 4 4 4 4 3 3 3 3 2 2 2 2 2 2 2 1 1 1 1 1 1 1 1 1 1 1 1 1 0 0 -0 -0 -1 -1 -1 -1 -1 -1 -1 -1 -1 -1 -1 -1 -1 -1 -1 -1 -1 -1 -1 -1 -2 -2
7 7 6 6 6 6 6 5 5 5 5 5 4 4 4 4 4 3 3 3 3 3 2 2 2 2 2 2 1 1 1 1 1 1 1 1 1 1 1 1 1 1 0 0 0 -0 -0 -0 -1 -1 -1 -1 -1 -1 -1 -1 -0 -0 -1 -1 -1 -1 -1 -1 -1 -1 -2 -2 -2
6 6 6 6 6 5 5 5 5 5 4 4 4 4 4 4 3 3 3 3 3 3 2 2 2 2 2 1 1 1 1 1 1 1 1 1 1 1 1 1 0 0 0 0 0 -0 -0 -1 -1 -1 -1 -1 -1 -1 -1 -0 -0 -0 -1 -1 -1 -1 -1 -1 -1 -1 -2 -2 -2
Height
843 844 845 846 847 847 848 848 849 849 850 850 851 851 852 852 852 853 853 853 853 853 853 853 853 853 853 853 853 853 853 853 852 852 852 852 851 851 850 850 850 849 848 848 847 846 846 845 845 844 844 843 843 842 842 841 841 840 840 840 839 838 838 837 836 836 835 835 835
842 843 844 845 846 846 847 847 848 849 849 850 850 850 851 851 851 852 852 852 852 852 853 853 853 853 853 852 852 852 852 852 852 851 851 851 850 850 850 849 848 848 847 846 846 845 845 844 844 843 843 842 842 841 841 840 840 839 839 838 838 837 836 836 835 835 834 834 833
841 842 843 844 845 845 846 846 847 848 848 849 849 850 850 850 851 851 851 851 851 852 852 852 852 852 852 851 851 851 851 851 851 850 850 850 849 849 848 848 847 847 846 845 845 844 844 843 843 842 841 841 840 840 840 839 839 838 838 837 836 836 835 835 834 834 833 832 832
840 841 842 843 844 844 845 845 846 846 847 848 848 849 849 850 850 850 850 850 851 851 851 851 851 851 851 851 850 850 850 850 850 849 849 849 848 848 847 847 846 845 845 845 844 843 843 842 842 841 840 840 840 839 839 838 838 837 836 836 835 835 834 833 833 832 832 831 830
840 840 841 842 843 843 844 845 845 845 846 847 847 848 848 849 849 850 850 850 850 850 850 850 850 850 850 850 850 849 849 849 848 848 848 847 847 846 846 845 845 845 844 843 843 842 842 841 841 840 840 839 839 838 838 837 836 836 835 835 834 834 833 832 831 831 830 830 829
839 840 840 841 842 842 843 844 844 845 845 846 846 847 847 848 848 849 849 849 849 849 849 849 849 849 849 849 849 848 848 848 847 847 846 846 846 845 845 844 844 843 843 842 842 841 841 840 840 839 839 838 838 837 836 836 835 835 834 833 833 832 831 831 830 829 829 828 827
838 839 840 840 841 841 842 842 843 844 844 845 845 846 847 847 847 848 848 848 848 848 848 848 848 848 848 848 847 847 847 846 846 846 845 845 845 844 844 843 843 842 842 841 841 840 840 839 839 838 837 837 836 836 835 835 834 833 833 832 831 831 830 829 828 828 827 826 825
837 838 839 839 840 840 841 841 842 842 843 844 845 845 846 846 847 847 847 847 847 847 847 847 847 847 847 846 846 846 845 845 845 845 844 844 843 843 843 842 842 841 841 840 840 840 839 838 838 837 836 836 835 835 834 833 833 832 831 830 830 829 829 828 827 826 825 825 824
836 837 838 838 839 840 840 840 841 842 842 843 844 845 845 845 846 846 846 846 846 846 846 846 846 846 845 845 845 845 844 844 844 843 843 843 842 842 841 841 841 840 840 840 839 839 838 837 836 836 835 835 834 833 833 832 831 830 830 829 828 827 826 826 825 825 824 823 822
835 836 836 837 838 839 839 840 840 841 841 842 843 844 844 845 845 845 845 845 845 845 845 845 845 845 844 844 844 843 843 843 842 842 842 841 841 841 840 840 840 839 839 839 838 837 837 836 835 835 834 833 832 832 831 830 830 829 828 827 826 825 825 824 824 823 822 821 820
834 835 835 836 837 837 838 839 839 840 840 841 842 843 843 843 844 844 844 844 844 844 844 844 844 843 843 843 842 842 842 842 841 841 841 840 840 840 840 839 839 838 838 837 837 836 835 834 834 833 832 832 831 830 830 829 828 827 826 825 825 824 823 822 822 821 820 820 819
833 834 835 835 836 836 837 838 838 839 840 840 841 841 842 842 843 843 843 843 843 843 843 842 842 842 842 841 841 841 841 840 840 840 840 839 839 839 838 838 838 837 836 836 835 835 834 833 832 831 830 830 829 829 828 827 826 825 824 824 823 822 821 820 820 819 819 818 817
832 833 834 835 835 835 836 837 837 838 839 839 840 840 841 841 841 842 842 842 842 841 841 841 841 841 840 840 840 840 840 840 839 839 839 838 838 838 837 837 836 836 835 835 834 833 832 831 830 830 829 828 828 827 826 825 825 824 823 822 821 820 819 818 818 818 817 816 815
831 832 833 833 834 835 835 836 836 837 838 838 839 839 840 840 840 840 840 840 840 840 840 840 840 840 839 839 839 839 839 838 838 838 837 837 837 836 836 835 835 834 834 833 832 831 831 830 829 828 827 826 826 825 825 824 823 822 821 820 819 818 817 817 816 816 815 814 813
830 831 832 832 833 834 834 835 835 836 837 837 838 838 839 839 839 839 839 839 839 839 839 839 839 838 838 838 838 838 837 837 837 836 836 835 835 835 834 834 833 833 832 831 830 830 829 828 827 827 826 825 824 823 823 822 821 820 820 819 818 817 816 815 815 814 814 813 811
830 830 831 831 832 833 833 834 835 835 836 836 837 837 837 838 838 838 838 838 838 838 838 837 837 837 837 837 837 836 836 836 835 835 835 834 834 833 833 832 832 831 830 830 829 828 828 827 826 825 824 823 822 821 821 820 820 819 818 817 816 815 815 814 813 812 812 811 810
829 829 830 830 831 831 832 833 833 834 835 835 835 836 836 836 836 836 836 836 836 836 836 836 836 836 836 836 835 835 835 834 834 834 833 833 832 832 831 830 830 829 829 828 827 826 826 825 825 824 823 822 821 820 819 818 818 817 816 815 815 814 813 812 811 811 810 809 808
828 828 829 830 830 830 831 832 832 833 834 834 835 835 835 835 835 835 835 835 835 835 835 835 835 835 835 834 834 834 833 833 832 832 832 831 831 830 830 829 828 828 827 826 825 825 824 823 823 822 821 820 819 818 817 817 816 815 814 814 813 812 811 810 810 809 808 807 806
827 827 828 828 829 830 830 831 831 832 833 833 833 834 834 834 834 834 834 834 834 834 834 834 834 833 833 833 833 832 832 831 831 830 830 830 829 829 828 827 827 826 825 825 824 823 822 821 821 820 819 818 817 816 816 815 814 813 812 812 811 810 809 808 808 807 806 805 804
826 826 827 827 828 829 829 830 830 831 831 832 832 832 832 832 832 832 832 832 832 832 832 832 832 832 832 832 831 831 830 830 830 829 829 828 828 827 826 826 825 825 824 823 822 821 820 820 819 818 817 816 815 815 814 813 812 811 810 810 809 808 807 806 805 805 804 803 802
825 825 826 826 827 828 828 829 830 830 830 830 831 831 831 831 831 831 831 831 831 831 831 831 831 830 830 830 830 830 829 829 828 828 827 827 826 825 825 824 824 823 822 821 820 820 819 818 817 816 815 815 814 813 812 811 810 809 809 808 807 806 805 804 804 803 802 801 800
824 824 825 825 826 827 827 828 828 829 829 829 830 830 830 830 830 830 830 830 830 830 830 830 830 829 829 829 828 828 828 827 827 826 826 825 825 824 824 823 822 821 820 820 819 818 817 816 815 814 813 812 812 811 810 810 808 807 806 805 805 804 803 802 802 801 800 800 799
823 823 824 825 825 826 826 827 827 828 828 828 828 828 829 829 829 829 829 829 829 828 828 828 828 828 828 827 827 826 826 825 825 825 824 824 823 822 822 821 820 820 819 818 817 816 815 814 813 812 812 811 810 809 809 808 807 806 805 804 803 802 801 800 800 799 798 798 797
821 822 823 824 824 825 825 826 826 826 827 827 827 827 827 827 827 827 827 827 827 827 827 827 827 826 826 826 825 825 825 824 824 823 823 822 822 821 820 820 819 818 817 816 815 815 814 812 811 811 810 810 809 808 807 806 805 804 803 802 801 800 799 799 798 797 797 796 795
820 821 822 823 823 824 824 825 825 825 825 825 826 826 826 826 826 826 826 826 826 826 825 825 825 825 825 824 824 824 823 822 822 821 821 820 820 819 819 818 817 816 815 815 814 813 812 812 811 810 809 808 807 806 805 805 804 803 802 801 800 799 797 797 796 795 795 794 793
820 820 821 822 822 823 823 823 824 824 824 824 824 824 824 824 824 824 824 824 824 824 824 824 824 824 823 823 822 822 821 821 820 820 819 819 818 817 817 816 815 815 814 813 812 811 811 810 810 809 808 807 806 805 804 803 802 801 800 799 798 797 796 795 794 793 793 792 792
819 820 820 821 821 822 822 822 823 823 823 823 823 823 823 823 823 823 823 823 823 823 823 823 822 822 822 821 821 820 820 820 819 818 818 817 816 816 815 815 814 813 812 811 811 810 809 809 808 807 806 805 804 803 802 801 800 799 798 797 796 795 795 793 792 791 791 790 790
818 819 819 820 820 820 821 821 821 821 821 822 822 821 821 821 821 821 821 821 821 821 821 821 821 820 820 820 819 819 818 818 817 817 816 815 815 814 813 813 812 811 810 810 809 808 808 807 806 805 805 804 803 801 800 799 798 797 796 795 795 794 793 792 791 790 789 788 787
817 818 818 819 819 820 820 820 820 820 820 820 820 820 820 820 820 820 820 820 820 820 820 820 819 819 818 818 818 817 817 816 816 815 815 814 813 812 812 811 810 810 809 808 807 806 806 805 804 804 803 802 801 800 799 798 796 795 795 794 793 792 791 790 789 788 787 786 785
816 817 817 818 818 818 819 819 819 819 819 819 819 819 819 819 819 819 819 819 819 819 818 818 818 817 817 816 816 815 815 815 814 814 813 812 811 811 810 809 808 808 807 806 805 805 804 803 802 802 801 800 799 798 797 796 795 794 793 792 791 790 790 789 788 787 786 785 784
815 816 816 817 817 817 818 818 818 817 817 817 817 817 817 817 817 817 817 817 817 817 817 816 816 815 815 815 815 814 813 813 812 812 811 810 810 809 808 807 806 806 805 805 804 803 802 801 800 800 799 798 797 796 795 794 793 792 791 790 789 788 788 787 786 785 784 783 782
815 815 815 816 816 816 816 816 816 816 816 816 816 816 816 816 816 816 816 816 815 815 815 815 815 814 814 813 813 812 812 811 810 810 810 809 808 807 806 805 805 804 803 803 802 801 800 800 799 798 797 796 795 794 793 792 791 790 789 788 787 787 786 785 784 784 783 782 781
814 814 814 815 815 815 815 815 815 815 815 815 815 815 815 815 815 815 815 814 814 814 814 813 813 812 812 811 811 810 810 809 809 808 808 807 806 805 804 803 803 802 801 801 800 799 799 798 797 796 795 795 794 792 791 790 789 788 787 786 785 785 784 784 783 782 781 780 780
813 813 813 814 814 814 814 814 813 813 813 813 813 813 813 813 813 813 813 813 813 812 812 812 811 811 810 810 809 809 808 807 807 806 806 805 804 803 802 801 800 800 800 799 798 797 797 796 795 794 793 792 791 790 789 788 787 786 785 785 784 783 782 782 781 780 780 779 778
812 812 812 812 812 812 812 812 812 812 812 812 812 812 812 812 812 812 812 811 811 811 810 810 810 809 809 808 808 807 806 805 805 805 804 803 802 801 800 799 798 798 798 797 796 795 795 794 793 792 791 790 789 788 787 786 785 784 784 783 782 781 780 780 779 778 778 777 776
811 811 811 811 811 811 811 811 811 811 810 810 810 810 810 810 810 810 810 810 810 809 808 808 808 807 807 806 805 805 805 804 803 802 802 801 800 799 798 797 796 796 796 795 795 794 793 792 791 790 790 788 787 786 785 785 784 782 781 780 780 779 778 778 777 776 775 775 774
810 810 810 810 810 810 810 810 810 810 809 809 809 809 809 809 809 809 809 808 808 807 806 806 806 805 805 804 804 803 803 802 801 800 800 799 798 797 796 795 794 794 793 793 792 791 791 790 789 788 787 786 785 784 783 783 782 780 780 779 778 777 776 775 775 774 773 772 771
809 809 809 809 809 809 809 808 808 808 808 808 808 808 808 808 807 807 807 807 806 805 805 804 804 803 803 802 802 801 800 800 800 799 798 797 796 795 794 793 792 791 791 791 790 790 789 788 787 786 786 785 783 782 782 781 780 779 778 777 775 775 774 774 772 771 770 770 769
807 807 807 807 807 807 807 807 807 807 807 807 807 806 806 806 805 805 805 805 804 804 803 802 802 801 801 800 800 799 798 798 797 797 796 795 794 794 793 791 790 789 789 789 788 788 787 786 785 784 784 783 782 781 780 779 778 777 776 775 774 772 772 771 770 769 768 767 766
806 806 806 806 806 806 806 806 806 806 805 805 805 805 805 804 804 804 803 803 803 802 801 800 800 800 799 799 798 797 796 795 795 795 794 793 792 791 791 789 788 787 787 786 786 785 785 784 783 782 782 781 780 779 778 777 776 775 774 773 772 770 769 768 768 767 766 765 764
805 805 805 805 805 805 805 805 805 804 804 804 804 803 803 803 802 802 801 801 801 800 800 799 798 798 797 797 796 795 794 793 792 792 792 791 790 790 789 788 786 785 785 784 784 783 782 782 781 780 780 779 778 777 777 776 774 773 772 771 770 769 767 766 765 765 764 763 761
Wind_Speed
13 14 14 14 13 13 12 11 10 8 7 7 7 7 7 7 7 6 6 6 5 5 4 4 4 4 5 5 6 6 7 8 8 9 10 11 12 13 14 15 16 17 18 18 19 19 19 20 20 20 20 20 19 19 19 19 18 18 18 18 18 18 18 19 19 19 19 19 19
15 15 15 14 14 13 12 11 9 8 7 7 8 8 8 7 7 6 6 5 5 5 4 4 4 4 5 6 6 7 8 8 9 10 11 12 13 15 15 16 17 18 18 18 18 19 19 19 19 19 19 19 19 19 19 18 18 18 18 18 18 18 19 19 19 19 19 19 19
16 16 16 15 15 13 12 11 9 8 8 8 8 8 8 7 7 6 6 5 5 5 4 4 5 5 6 7 7 8 9 10 11 12 13 14 15 16 16 17 17 17 18 18 18 18 18 18 19 19 19 19 19 18 18 18 18 18 18 18 18 19 19 19 20 20 20 19 19
17 17 17 16 15 13 12 10 9 8 8 8 9 9 8 8 7 7 6 6 5 5 5 5 6 6 7 7 8 9 10 11 12 13 14 15 16 16 17 17 17 17 17 17 17 17 18 18 18 18 18 18 18 18 18 18 17 17 17 18 18 19 19 20 20 20 20 20 19
18 18 17 16 14 13 12 10 9 9 9 9 9 9 9 8 8 7 6 5 5 5 5 6 6 7 8 8 9 10 11 12 13 14 15 15 16 16 17 17 16 16 17 17 17 17 17 17 17 17 17 17 17 17 17 17 17 17 18 18 18 19 19 20 20 20 20 20 20
19 18 17 16 14 13 12 10 10 9 9 9 9 9 9 8 8 7 6 5 5 5 6 6 7 8 8 9 10 11 12 13 14 15 15 16 16 16 16 16 16 16 16 16 16 17 17 17 17 17 17 17 17 17 17 17 17 18 18 19 19 19 19 20 20 20 20 20 20
19 18 17 16 15 13 12 11 10 10 10 10 9 9 9 8 7 6 6 6 6 6 7 7 8 8 9 10 11 12 13 14 15 15 16 16 16 16 16 16 16 16 16 16 16 16 17 17 17 17 17 17 17 17 17 17 17 18 19 19 19 19 20 20 20 20 21 21 21
19 19 18 16 15 13 12 11 10 10 10 10 9 9 8 8 7 6 6 6 6 7 7 8 9 9 10 11 12 13 14 14 15 15 16 16 16 16 16 16 16 16 16 16 16 17 17 17 17 17 17 17 17 17 17 17 18 18 19 20 20 20 20 20 21 21 21 21 21
20 19 18 16 15 13 12 11 10 10 10 10 9 9 8 8 7 7 6 6 7 7 8 9 9 10 11 12 13 14 15 15 15 16 16 16 16 16 16 16 16 16 16 16 16 17 17 17 17 17 17 17 17 18 18 18 18 19 20 20 20 21 20 20 21 21 21 21 21
21 19 18 16 15 13 12 11 10 10 10 10 9 9 8 8 7 7 7 7 8 8 9 10 10 11 12 13 14 14 15 15 16 16 16 16 15 15 15 16 16 16 17 17 17 17 17 18 18 18 18 17 18 18 18 18 19 19 20 20 21 21 21 21 20 20 21 21 21
21 20 18 16 15 13 12 11 11 10 10 10 9 9 8 8 7 7 7 8 8 9 10 11 11 12 13 14 14 15 15 15 15 15 15 15 15 15 15 16 16 17 17 17 17 17 18 18 18 18 18 18 18 18 19 19 19 20 21 21 21 22 22 22 21 20 21 21 22
21 19 17 16 14 13 12 11 11 10 10 9 9 8 8 8 8 8 8 9 9 10 11 12 12 13 14 14 15 15 15 15 15 15 15 15 15 15 15 16 17 17 17 18 18 18 18 18 18 19 19 19 19 19 19 19 20 20 21 21 21 22 22 22 21 21 21 21 22
21 19 17 15 14 13 12 11 11 10 10 9 9 8 8 8 8 9 9 9 10 11 12 13 13 14 14 15 15 15 15 14 14 14 15 15 15 16 16 17 17 18 18 18 18 18 18 18 18 19 19 20 19 19 19 20 20 21 21 22 22 22 22 22 21 21 21 22 23
20 18 16 15 14 13 12 11 11 10 9 9 9 9 8 9 9 9 10 11 11 12 13 13 14 14 15 15 15 14 14 14 14 15 15 15 16 16 17 17 18 18 18 18 18 18 18 18 19 19 20 20 20 20 20 20 20 21 21 21 21 22 22 22 22 22 22 23 24
19 17 16 14 13 13 12 11 11 10 10 9 9 9 9 9 10 10 11 12 12 13 14 14 14 15 15 14 14 14 14 14 15 15 16 16 17 17 18 18 18 18 18 18 18 18 18 18 19 19 20 20 21 21 21 20 20 20 20 20 21 21 22 22 22 23 23 24 25
18 17 15 14 13 13 12 11 11 10 10 9 9 10 10 10 11 11 12 12 13 14 14 15 15 15 14 14 14 14 14 14 15 16 17 17 18 18 18 19 19 18 18 18 18 18 18 19 19 19 20 20 21 21 21 20 20 20 20 20 21 21 22 23 23 23 24 24 25
18 16 15 14 13 13 12 11 11 11 10 10 10 10 11 11 11 12 12 13 14 14 15 15 15 14 14 14 14 14 14 15 16 16 17 18 18 18 19 19 19 18 18 18 19 19 19 19 19 19 20 21 21 21 21 20 20 20 20 20 21 22 23 23 24 24 24 25 25
17 16 15 14 13 12 12 11 11 11 11 11 11 11 11 12 12 12 13 14 14 15 15 15 14 14 14 14 14 14 15 16 17 17 18 18 19 19 19 19 19 18 18 18 19 19 19 20 20 20 20 21 21 20 20 20 20 20 21 21 22 23 24 24 25 25 25 25 25
17 16 15 14 13 12 12 11 11 11 11 11 11 12 12 12 13 13 14 14 15 15 15 14 14 14 14 14 14 15 16 17 17 18 18 18 19 19 19 19 18 18 18 18 19 19 20 20 20 21 21 21 20 20 20 20 20 21 22 23 24 25 25 25 25 25 25 25 26
17 15 14 13 13 12 11 11 11 11 11 11 12 12 12 13 13 14 14 14 15 14 14 14 14 14 14 14 15 16 16 17 18 18 19 19 19 19 18 18 18 18 18 19 19 19 20 21 21 21 21 20 20 20 20 21 21 22 24 24 25 26 26 26 26 26 25 26 26
16 15 14 13 12 11 11 11 11 11 11 11 11 12 13 13 14 14 15 15 15 14 14 14 14 14 14 15 16 17 17 18 18 19 19 19 19 18 18 18 18 18 19 19 19 20 20 21 21 21 20 20 20 20 21 22 23 24 25 26 26 26 26 26 26 26 26 26 26
15 14 13 12 11 11 10 10 10 10 11 11 12 12 13 14 14 15 15 15 14 14 13 13 14 14 15 16 17 18 18 19 19 19 19 19 19 18 18 18 18 19 19 19 20 20 21 21 21 21 20 20 21 21 22 23 24 25 26 26 26 26 26 26 26 26 26 26 26
15 14 13 12 11 10 10 10 10 10 11 11 12 13 14 14 15 15 15 14 14 13 13 14 14 15 16 17 17 18 19 20 20 19 19 19 18 18 18 18 18 19 19 19 20 21 21 21 21 20 20 21 22 22 23 24 25 25 26 26 26 26 26 26 26 26 26 26 26
15 14 12 11 11 10 10 10 10 11 11 12 13 14 14 15 15 15 14 14 14 13 14 14 15 15 16 17 18 19 19 20 20 20 19 19 18 18 18 18 18 19 19 20 20 21 21 20 20 20 21 21 22 23 23 24 24 25 25 25 26 26 26 26 26 26 26 25 25
15 13 12 11 11 10 10 10 11 12 12 13 14 14 15 15 15 15 14 14 14 14 14 15 15 16 17 18 19 19 20 20 20 20 19 19 18 18 18 18 19 19 19 20 20 20 19 18 19 20 21 22 22 23 23 23 23 24 24 24 25 25 26 26 25 25 25 24 24
14 13 12 12 11 11 11 11 12 12 13 14 15 15 15 15 15 15 14 14 14 14 15 15 16 17 18 19 19 20 20 20 19 19 19 19 19 18 18 19 19 19 20 20 21 20 19 18 19 19 20 21 22 22 23 23 23 23 23 24 24 24 25 25 25 25 24 24 24
14 13 12 12 11 11 11 12 12 13 14 15 15 15 15 15 15 15 14 14 14 15 15 16 17 18 19 19 20 20 20 20 19 19 19 18 19 19 19 19 19 20 20 21 21 20 19 19 19 19 20 20 21 22 22 23 23 23 23 23 23 23 24 24 24 25 25 24 24
14 13 13 12 12 12 12 13 13 14 14 15 15 15 15 15 15 15 15 15 15 15 16 17 18 18 19 20 20 20 20 20 19 19 18 18 18 19 19 20 20 20 21 21 21 20 19 19 19 19 19 20 20 21 22 22 22 23 23 23 23 23 23 24 24 24 25 25 25
14 13 12 12 12 12 13 13 13 14 15 15 15 15 15 15 15 15 15 15 16 16 17 17 18 19 20 20 20 20 20 20 19 19 19 18 19 19 19 20 20 21 21 21 21 20 20 19 19 19 19 19 20 21 21 22 22 22 23 23 23 23 24 24 25 25 25 25 25
13 13 12 12 12 13 13 13 14 14 15 15 15 15 15 15 15 15 15 16 16 17 17 18 19 19 20 20 20 21 20 20 19 19 19 19 19 19 20 20 21 21 22 22 22 21 20 19 19 20 20 20 20 20 21 21 22 22 23 23 23 24 24 25 25 25 25 25 25
13 12 12 12 13 13 13 13 14 14 15 15 15 15 15 15 15 15 16 16 17 17 18 18 19 20 20 20 20 20 20 20 20 19 19 19 19 20 20 21 21 22 22 22 22 21 20 19 20 20 20 20 20 20 21 21 22 22 23 23 24 24 24 24 24 24 24 24 24
12 12 12 12 13 13 13 14 14 15 15 15 15 15 15 15 16 16 16 17 17 18 18 19 19 20 20 20 20 20 20 20 20 19 19 19 20 20 21 22 22 23 23 23 22 20 20 20 20 20 20 20 20 20 21 21 22 22 23 24 24 24 24 24 23 23 23 23 24
12 12 12 12 13 13 14 14 15 15 15 15 16 16 16 16 16 16 17 17 18 18 18 19 19 20 20 20 21 21 21 20 20 20 20 19 20 21 22 22 23 23 23 23 22 21 20 20 20 20 20 20 20 20 21 21 22 23 23 23 24 23 23 23 22 23 23 23 24
12 12 12 13 13 14 14 15 15 15 16 16 16 16 16 16 16 17 17 18 18 18 19 19 19 20 20 20 20 21 21 21 20 20 20 20 20 21 22 23 24 24 23 23 22 22 21 21 20 20 20 20 20 20 21 22 22 23 23 23 24 23 23 22 22 23 23 25 26
11 12 12 13 14 14 15 15 16 16 16 16 16 16 16 16 17 17 18 18 18 19 19 20 20 20 20 20 20 21 21 21 21 21 20 21 21 22 23 24 24 24 24 24 23 22 22 21 20 20 20 20 20 21 21 22 22 23 23 24 24 23 23 23 23 24 24 25 26
11 12 13 14 15 15 15 16 16 16 16 16 16 16 16 17 17 18 18 18 19 19 20 20 20 20 21 21 21 21 20 21 21 21 21 21 22 23 24 25 25 25 25 24 24 23 22 21 20 20 20 20 21 21 22 22 23 23 23 24 24 24 24 24 24 25 25 26 27
12 13 14 15 15 15 16 16 16 16 16 16 16 16 17 17 18 18 18 18 19 19 20 20 20 21 21 21 21 21 21 21 21 22 22 22 23 23 25 25 26 26 25 25 24 23 22 21 21 20 20 20 21 21 22 22 23 23 24 24 24 24 24 24 25 26 26 27 27
13 13 14 15 15 16 16 16 16 16 16 16 16 17 17 18 18 19 19 19 19 19 20 21 21 21 21 21 21 21 21 21 22 22 23 23 23 24 25 26 27 26 26 25 25 24 23 22 21 20 20 20 21 21 22 22 23 23 24 24 25 25 25 25 26 26 27 27 26
13 14 15 15 15 16 16 16 16 16 16 16 17 17 18 18 19 19 19 19 19 20 20 21 21 21 21 21 21 22 22 22 22 23 24 24 24 24 25 26 27 27 27 26 25 24 23 22 21 20 19 19 20 21 21 22 23 24 24 24 25 25 26 26 26 27 27 26 26
14 15 15 15 15 15 15 16 16 16 16 17 17 18 18 19 19 19 19 19 20 20 20 21 21 21 21 21 22 23 23 24 24 24 24 24 24 24 25 26 27 27 27 26 26 25 23 22 20 19 19 19 20 20 21 22 23 23 23 24 24 25 26 27 26 26 26 26 26
15 15 15 15 15 15 15 16 16 16 17 17 18 18 19 19 19 20 20 20 20 20 20 21 21 21 21 21 22 23 24 25 25 25 24 25 25 25 25 26 27 27 27 26 26 24 23 21 19 19 19 19 20 20 21 22 22 23 23 24 24 25 26 27 27 26 25 25 25
Wind_Direction
200 199 199 199 199 200 202 207 214 223 231 237 239 241 243 244 243 245 249 252 255 263 273 284 294 301 306 308 308 308 308 309 309 308 308 307 306 305 305 304 304 304 305 306 307 308 311 312 314 315 316 317 319 319 321 322 324 324 324 325 326 326 325 323 321 321 320 319 317
197 196 196 196 198 201 205 211 217 225 231 236 239 240 242 242 241 241 244 246 252 261 273 284 292 300 306 307 307 306 306 305 305 305 304 304 303 303 303 304 304 305 306 308 310 312 313 314 315 316 317 317 318 319 320 321 323 324 325 325 325 325 324 322 321 320 319 318 317
195 195 196 197 200 204 209 214 220 225 230 233 236 239 240 240 238 237 239 245 255 264 273 284 293 299 303 305 304 304 303 303 302 302 302 302 302 302 303 304 306 308 310 311 313 315 316 316 316 317 317 318 318 319 320 322 323 324 325 325 324 323 322 320 320 320 319 318 317
195 196 198 200 204 208 213 217 222 227 231 233 235 237 237 236 236 236 240 248 257 266 275 284 292 297 300 301 301 301 300 299 299 299 299 300 301 303 304 306 308 310 312 314 316 317 318 318 318 318 318 319 319 320 321 322 323 324 323 323 322 321 320 319 318 318 318 317 316
196 198 200 203 207 211 215 220 224 227 230 233 234 235 235 235 236 237 242 249 259 268 276 284 291 295 297 297 297 297 297 297 297 298 299 300 302 304 306 308 310 313 315 317 319 320 320 320 319 319 319 320 320 321 322 323 323 322 321 320 320 319 318 317 317 317 317 317 316
197 199 202 204 207 211 215 219 223 227 230 232 233 232 232 232 234 236 242 250 261 270 277 284 289 291 293 293 293 293 294 295 296 298 300 301 303 305 308 310 312 315 317 320 322 322 323 322 321 321 320 320 320 321 321 322 322 321 319 318 317 317 316 316 316 316 316 316 314
199 201 202 205 207 211 215 219 222 227 230 232 231 230 229 231 232 236 245 255 264 270 277 282 286 288 289 290 291 292 293 295 297 299 301 303 304 307 309 312 314 317 320 323 324 325 325 324 323 322 321 321 320 321 321 321 321 319 317 316 316 315 315 315 315 316 315 314 314
201 202 203 205 208 211 215 219 223 226 228 228 227 226 228 231 235 241 249 258 264 270 276 281 284 286 288 289 290 292 293 295 297 299 301 303 306 308 311 313 316 319 322 324 325 325 324 323 322 322 322 321 321 321 321 320 319 317 316 315 314 314 314 314 314 315 314 313 313
201 202 204 206 208 210 214 218 222 224 225 224 224 224 228 233 239 246 253 259 264 271 277 280 283 285 287 288 290 292 294 295 297 299 301 304 307 309 312 315 317 320 322 324 324 323 322 321 321 321 321 321 321 320 320 319 318 316 315 314 314 314 313 313 313 314 314 314 313
201 203 204 205 207 210 213 217 220 222 221 220 222 225 230 236 243 249 254 261 267 273 277 280 282 284 286 288 289 291 294 295 297 299 302 305 308 311 314 316 317 318 319 320 321 320 320 319 320 320 320 321 320 320 319 319 317 316 314 314 314 313 312 312 313 314 314 314 313
203 203 204 205 207 210 213 215 217 217 218 219 222 227 233 239 245 250 256 262 269 273 276 278 281 283 285 287 289 291 293 295 297 299 302 305 308 311 313 314 315 315 316 316 317 317 318 318 319 319 320 320 320 319 319 318 317 315 314 313 313 312 311 311 313 314 314 314 313
203 203 204 205 208 210 212 213 213 214 215 219 224 230 235 241 246 252 258 264 268 271 274 277 280 282 283 285 287 289 292 294 297 300 302 305 307 309 310 311 311 311 312 313 315 316 316 317 318 319 319 319 319 319 318 318 317 315 314 313 312 312 311 312 313 314 314 314 313
202 203 203 205 207 209 209 209 210 212 215 220 226 232 237 242 248 253 259 263 266 270 273 276 278 280 282 284 286 288 291 294 297 299 302 304 306 307 307 307 308 309 310 312 313 314 315 317 317 318 318 318 318 318 318 317 316 315 314 313 312 312 312 312 313 314 314 313 312
201 202 202 204 205 205 205 205 207 211 215 221 227 233 238 244 250 254 258 262 265 268 272 275 277 279 281 283 285 288 291 294 297 299 301 303 304 304 305 305 306 308 309 311 312 313 314 316 317 317 317 317 317 317 317 316 314 313 312 312 311 311 311 312 313 313 313 312 311
199 200 201 202 201 201 202 203 207 211 216 221 228 234 239 245 250 254 258 262 265 268 271 274 276 278 280 283 286 289 292 295 297 299 301 302 303 303 304 305 306 308 309 310 311 313 314 315 316 317 317 316 316 316 315 314 313 312 311 310 310 310 310 310 311 311 311 310 310
197 198 199 198 198 199 200 203 207 211 216 222 228 235 240 245 250 255 259 263 266 269 271 273 275 277 281 284 288 291 294 296 298 300 301 302 302 303 304 305 306 308 309 310 311 312 313 315 316 316 316 315 315 315 314 313 312 311 310 309 309 309 309 309 310 310 309 309 307
196 196 195 195 195 197 201 205 209 214 218 224 230 236 241 247 252 257 261 264 267 269 272 273 276 279 282 286 290 293 296 298 299 300 301 302 303 303 304 305 307 308 309 310 311 312 313 314 315 316 315 314 314 313 313 312 311 310 310 309 309 308 308 308 308 308 308 307 305
193 192 192 193 195 198 202 207 212 217 222 227 233 238 244 249 254 259 263 266 268 270 272 274 278 281 285 289 293 296 298 300 301 301 302 302 303 304 304 305 306 307 308 309 311 312 314 315 315 315 315 314 313 312 312 312 311 311 310 309 309 308 308 308 308 308 307 306 305
190 190 190 192 195 200 205 211 216 221 225 231 236 242 247 252 257 261 265 267 269 271 273 276 280 285 289 293 296 298 299 300 301 302 302 303 303 304 304 305 306 307 308 309 311 312 314 314 315 315 314 313 313 312 312 312 311 311 310 310 309 309 308 309 309 308 308 306 305
188 188 190 193 198 203 209 215 220 226 230 235 241 246 252 257 261 264 266 267 270 272 275 279 284 289 293 296 298 300 300 301 301 302 303 303 304 304 304 305 306 307 308 309 311 313 314 315 315 314 314 314 313 313 313 313 312 311 310 310 309 309 309 309 309 309 308 307 306
186 188 192 197 202 208 214 220 225 231 236 241 247 252 257 261 264 266 267 268 271 274 278 283 288 292 296 298 300 301 301 302 302 303 303 304 304 304 305 305 306 307 308 310 312 313 314 315 314 314 314 314 314 314 313 313 312 311 310 309 309 308 309 309 309 308 308 307 306
187 190 195 201 207 213 220 227 232 238 243 249 254 259 262 265 266 267 268 269 272 276 281 286 291 295 298 300 301 302 302 302 303 303 303 304 304 304 304 305 306 307 309 311 313 314 315 315 315 315 315 315 314 313 312 311 310 309 309 308 308 307 308 307 307 307 306 306 305
189 194 200 206 213 220 228 235 240 246 251 256 261 264 266 266 267 267 268 270 274 278 283 288 293 296 299 300 301 302 303 303 303 303 303 303 303 303 304 305 306 308 310 312 314 315 316 315 315 315 314 313 311 310 309 309 308 307 307 306 306 306 306 306 306 306 305 305 304
193 199 205 212 220 227 235 242 248 253 258 262 265 267 267 267 267 267 269 272 276 281 286 290 294 297 299 301 302 303 303 303 303 303 303 302 303 303 304 305 307 309 311 313 315 316 315 313 312 311 310 308 307 307 306 306 305 305 305 305 305 304 304 304 304 304 304 304 304
198 204 210 218 226 234 241 248 254 258 262 265 267 268 268 267 267 268 270 274 278 283 288 292 295 298 300 302 302 303 303 303 303 303 303 302 303 303 305 306 308 310 312 314 315 316 313 308 305 304 304 304 303 303 303 303 303 303 303 303 303 303 303 303 304 304 304 304 303
203 209 215 222 231 239 246 252 257 262 265 267 268 268 268 267 268 269 273 276 281 285 290 294 297 300 301 302 302 302 303 303 302 303 303 303 303 304 305 307 309 311 313 314 316 315 311 305 302 301 301 301 301 302 302 302 302 302 302 302 302 303 303 303 304 304 304 304 303
207 212 219 227 235 242 249 255 260 264 267 268 268 268 268 268 270 272 275 279 283 288 292 296 299 301 302 302 302 302 302 302 302 302 302 303 304 304 306 308 310 312 313 315 315 313 308 304 302 301 301 301 301 302 302 302 302 302 302 302 302 302 303 303 304 304 304 304 303
210 216 223 231 238 246 253 258 262 265 267 268 268 268 269 270 272 274 277 281 286 290 294 297 299 301 302 302 302 302 302 301 301 301 302 302 303 304 306 308 310 312 314 315 314 311 307 304 302 302 301 301 302 302 302 302 302 302 302 302 302 302 302 303 304 304 304 303 304
214 220 227 235 242 250 256 260 264 266 268 269 269 270 270 272 273 276 280 284 288 292 296 298 300 301 302 302 302 302 301 301 301 301 301 301 302 303 305 308 310 312 314 315 313 311 308 305 302 302 302 302 301 301 301 301 301 301 301 301 301 302 303 303 304 303 303 303 304
217 224 232 239 247 253 259 263 266 268 269 270 271 271 272 273 276 279 282 286 290 294 297 299 300 301 301 301 301 301 300 300 300 300 300 300 301 303 305 308 310 312 314 315 314 311 308 304 302 301 302 302 302 301 301 300 300 300 300 301 301 302 303 304 304 303 303 303 304
221 229 237 245 251 257 262 266 269 270 272 272 273 273 274 275 278 281 284 288 292 295 298 299 300 300 300 301 300 300 299 299 299 299 299 300 302 303 305 308 310 312 313 314 313 311 307 303 302 301 301 302 301 300 300 299 299 299 300 300 301 302 303 304 303 303 303 304 304
227 235 243 250 257 262 266 270 272 273 274 274 274 274 275 277 280 283 286 290 294 296 298 299 299 299 300 300 299 299 298 298 298 298 299 301 302 304 305 307 309 311 313 314 312 309 305 303 301 301 301 301 300 300 298 298 298 298 299 300 301 302 303 302 302 302 303 304 304
233 241 249 256 262 267 271 274 275 276 276 276 275 276 277 279 282 285 288 292 295 297 298 298 298 299 299 299 299 299 298 298 298 299 300 301 303 304 304 306 308 310 312 313 311 308 305 302 301 300 300 300 299 298 297 297 297 297 298 299 300 301 301 301 302 302 303 304 304
239 248 255 262 268 272 275 277 278 277 277 276 276 277 278 281 284 287 291 293 296 297 297 297 298 298 298 298 298 298 298 298 298 299 300 301 302 302 303 304 307 309 311 311 310 308 306 303 301 300 299 299 298 297 296 296 297 297 298 299 300 300 300 300 301 302 303 304 304
247 256 263 268 273 276 278 279 279 278 277 277 277 278 280 284 287 290 293 295 296 297 297 297 298 298 298 298 298 298 298 298 299 299 300 301 301 301 302 303 306 309 310 311 310 308 306 304 301 299 298 298 297 296 296 296 297 298 298 299 299 299 299 300 301 302 303 303 304
256 263 269 274 277 279 280 279 279 278 277 277 279 281 284 287 289 292 294 296 297 297 297 297 298 298 298 298 298 298 298 298 299 299 300 300 300 301 301 303 305 307 309 310 310 308 306 304 300 298 298 297 295 295 295 296 296 297 297 297 297 298 299 300 301 301 302 302 303
265 270 274 277 279 279 279 279 278 278 278 280 282 285 287 290 292 294 296 297 297 296 297 297 298 298 298 298 299 298 298 298 298 298 299 299 299 300 301 303 304 306 308 309 309 308 306 303 300 297 296 295 294 294 294 295 295 295 295 295 296 297 298 299 300 300 301 302 303
271 274 276 278 279 279 279 279 278 279 281 283 286 288 291 292 294 296 296 297 297 297 297 298 298 298 299 299 299 299 298 297 297 297 297 298 299 300 301 302 303 304 306 308 308 307 305 303 300 297 294 293 293 293 293 293 294 294 294 294 295 296 297 299 299 300 301 302 302
273 275 277 278 278 278 279 279 280 282 284 287 289 291 293 294 295 296 297 297 296 296 297 297 298 299 299 300 299 298 297 296 295 296 296 297 299 300 300 300 301 303 305 307 307 306 305 303 300 296 292 291 290 291 291 292 292 292 292 293 294 296 297 298 299 300 301 301 301
274 275 276 277 278 279 280 281 283 285 288 290 292 293 294 295 295 296 296 296 296 296 296 297 298 299 299 299 297 296 296 295 295 295 296 297 298 299 299 299 299 301 303 304 305 305 304 302 299 295 291 289 288 289 290 290 290 290 290 292 293 295 297 298 299 300 300 300 301
274 276 277 277 279 280 282 284 286 288 290 292 293 293 294 294 294 295 295 296 296 296 296 297 298 298 298 297 296 295 295 295 295 295 296 297 298 298 298 298 298 299 301 302 303 304 303 301 298 293 289 287 287 288 288 289 289 289 289 291 293 295 296 298 299 300 299 298 299